Current Version              Previous Version:    01  02  03  04  05  06  07  08  09  10  11  12  13  14  15  16  17  18  19  20  21  22  23  24  25  26  27  28  29  30  
   31  32  33  34  35  36  37  38  39  40  41  42  43  44  45  46  47  48  49  50  51  52  53  54  55  56  57  58  59  60  

[Printable]
893
ASUS44 KLUB 202310
RWRTX
WEST TEXAS WEATHER ROUNDUP
NATIONAL WEATHER SERVICE LUBBOCK TX
600 PM CDT SUN APR 20 2014

NOTE: "FAIR" INDICATES FEW OR NO CLOUDS BELOW 12,000 FEET WITH NO
SIGNIFICANT WEATHER AND/OR OBSTRUCTIONS TO VISIBILITY.

TXZ004-006>008-010-012-014-016-OKZ002-210000-
TEXAS PANHANDLE/OKLAHOMA PANHANDLE

CITY           SKY/WX    TMP DP  RH WIND       PRES   REMARKS
AMARILLO       LGT RAIN  68  53  58 SW15      29.93R
BORGER         PTSUNNY   76  44  32 W9G17     29.90F
CANADIAN       TSTM      57  53  86 SE13      29.96R
DALHART        CLOUDY    68  43  40 N10       29.97R
DUMAS          PTSUNNY   69  45  41 CALM      29.93F
GUYMON         CLOUDY    74  45  35 W16G26    29.88F
HEREFORD       PTSUNNY   72  42  33 SW18G25   29.96S
PAMPA          CLOUDY    60  53  77 S12G18    29.94S
PERRYTON       CLOUDY    58  54  85 S5        29.93R
$$

TXZ026-029-035-045-048-210000-
SOUTHERN PANHANDLE/SOUTH PLAINS/ROLLING PLAINS

CITY           SKY/WX    TMP DP  RH WIND       PRES   REMARKS
CHILDRESS      CLOUDY    66  61  84 NE15G23   29.92S
SEMINOLE       MOSUNNY   79  40  25 W16       29.98F
LUBBOCK        PTSUNNY   76  49  38 SW18G24   29.95S
PLAINVIEW      PTSUNNY   76  39  26 SW17      29.94R
SNYDER         SUNNY     74  63  67 SE14      29.98F
$$

TXZ052-054-060>062-072-078-127-140-154-169-210000-
PERMIAN BASIN/CONCHO VALLEY/BIG COUNTRY/EDWARDS PLATEAU

CITY           SKY/WX    TMP DP  RH WIND       PRES   REMARKS
ABILENE        CLOUDY    68  64  87 SE14      30.01F
BIG SPRING     MOSUNNY   81  54  38 S13       29.99F
BRADY          CLOUDY    64  64 100 S6        30.04S
BROWNWOOD      PTSUNNY   66  66 100 SE6       30.04S FOG
JUNCTION       CLOUDY    69  63  81 S9        30.04S
MIDLAND        MOSUNNY   80  51  36 S13       29.98F
ODESSA         MOSUNNY   79  49  34 S13       29.98F
SAN ANGELO     CLOUDY    73  63  70 S8        30.01S
SONORA         CLOUDY    72  63  73 S10       30.04S
SWEETWATER     PTSUNNY   73  62  68 SE14      30.03F
WINK           SUNNY     83  42  23 SW15G23   29.95F
$$

TXZ055-058-074-075-080-082-210000-
FAR WEST/SOUTHWEST MOUNTAINS/TRANS PECOS

CITY           SKY/WX    TMP DP  RH WIND       PRES   REMARKS
ALPINE         PTSUNNY   76  37  23 W6        30.11S
DRYDEN           N/A     85  60  42 E14       29.97S
EL PASO        MOSUNNY   78  35  21 SW12G23   30.04F
FORT STOCKTON  CLOUDY    80  46  30 N5        29.99F
GUADALUPE PASS SUNNY     71  37  28 SW31G38   30.10F
MARFA          MOSUNNY   77  30  18 W9G24     30.11S
PECOS          SUNNY     84  39  20 W9G20     29.96S
PRESIDIO       FAIR      86  37  17 SE5       29.96F
$$

TXZ014-016-019-021>030-083-210000
TEXAS TECH WEST TEXAS MESONET/TEXAS PANHANDLE/NORTHERN SOUTH PLAINS

CITY           SKY/WX    TMP DP  RH WIND       PRES   REMARKS
ABERNATHY 5ENE   N/A     76  50  40 SW15      29.96R
AMARILLO 9NNE    N/A     71  44  37 SW15G24   29.91R
AMARILLO 7SSE    N/A     70  45  41 SW20      29.94S
AMHERST 1NE      N/A     74  40  28 W14       29.96S
BOOTLEG 11WNW    N/A     60  47  61 W9        30.00R
CANADIAN 6E      N/A     54  49  83 SE15      29.96R
CAPROCK CYN SP   N/A     79  48  34 S18       29.91F
CHILDRESS 2NNE   N/A     62  59  90 NE10      29.93S
CLARENDON 2WSW   N/A     71  52  50 SE8       29.93R
CLAUDE 12SW      N/A     67  50  54 S12       29.93S
DIMMITT 2NE      N/A     65  50  58 S14       29.98R
FLOYDADA 2NNE    N/A     77  44  30 SW18      29.94F
FRIONA 2NE       N/A     69  48  46 S13       29.97F
GOODLETT 3W      N/A     74  59  59 SE22G33   29.91F
HART 3N          N/A     66  48  53 W24       29.98R
HEREFORD 2NW     N/A     67  47  48 SW14      29.95F
MCLEAN 1E        N/A     65  56  74 SE18      29.92F
MEMPHIS 1NE      N/A     65  59  80 E15       29.91F
MULESHOE 2SSW    N/A     65  55  69 E2        29.97F
OLTON 6S         N/A     75  38  26 SW15      29.95S
PALO DURO SP     N/A     73  43  34 W15       29.95R
PAMPA 2E         N/A     60  51  74 SE13      29.93F
PLAINVIEW 1S     N/A     77  39  25 SW17      29.94R
SILVERTON 7ESE   N/A     72  53  50 S15       29.93F
TULIA 2ENE       N/A     75  40  28 W16       29.94R
TURKEY 2WSW      N/A     80  47  30 SW18      29.89F
UMBARGER 3NNE    N/A     70  47  43 W9        29.95F
$$

TXZ033>036-039>041-045>048-210000
TEXAS TECH WEST TEXAS MESONET/SOUTH PLAINS

CITY           SKY/WX    TMP DP  RH WIND       PRES   REMARKS
AIKEN 3WSW       N/A     74  52  46 S17       29.95S
ANDREWS 2NE      N/A     80  42  26 SW13      29.98S
ANTON 6SSW       N/A     77  43  29 SW17      29.95S
BROWNFIELD 2S    N/A     74  50  42 S13       29.97S
DENVR CTY 7WNW   N/A     77  37  23 SW17G29   29.98S
GAIL 2ESE        N/A     80  51  35 SW13      29.95F
LAMESA 2SE       N/A     77  53  42 SW13      29.97F
LEVELLAND 4S     N/A     76  41  27 SW20      29.97S
LUBBOCK 3WNW     N/A     76  48  37 S15       29.95S
MORTON 1ENE      N/A     77  39  25 SW17      29.96F
ODONNELL 1N      N/A     76  50  40 SW14      29.97S
PLAINS 3N        N/A     78  40  25 SW17      29.98S
RALLS 1SE        N/A     76  45  33 SW14      29.96S
REESE CENTER     N/A     76  40  27 SW23      29.96R
SEAGRAVES 1SW    N/A     78  42  27 SW20      29.97F
SEMINOLE 2NNE    N/A     78  40  25 W14       29.97S
SLATON 2NE       N/A     79  42  26 SW21      29.95S
SNYDER 3E        N/A     75  60  58 S13       29.98S
SUNDOWN 8SW      N/A     77  41  27 SW15      29.97S
TAHOKA 3NNE      N/A     78  44  29 SW16      29.96S
WOLFFORTH 6SSW   N/A     75  51  42 S18       29.96S
$$

TXZ031-032-036>038-042>044-210000-
TEXAS TECH WEST TEXAS MESONET/ROLLING PLAINS

CITY           SKY/WX    TMP DP  RH WIND       PRES   REMARKS
ASPERMONT 3NE    N/A     72  62  69 S9        29.98S
FLUVANNA 3WNW    N/A     76  54  47 S14       29.97S
GRAHAM 5SSW      N/A     77  49  38 S13       29.96F
GUTHRIE 10WSW    N/A     78  56  47 S15       29.93F
HASKELL 1NW      N/A     70  61  71 SE12      29.99S
JAYTON 1SSE      N/A     76  58  55 S14       29.96F
KNOX CITY 3NW    N/A     73  60  63 SE17      29.97F
LK A HENRY 1NW   N/A     77  57  49 S14       29.95S
NORTHFIELD 1S    N/A     78  54  43 S13       29.89F
ODELL 4ENE       N/A     70  58  66 SE17      29.98F
PADUCAH 10SW     N/A     78  54  42 S18       29.92F
POST 1NE         N/A     80  47  31 S10       29.95S
RRING SPRGS 3N   N/A     78  55  43 S18       29.93F
SEYMOUR 3NW      N/A     69  61  75 SE17      29.99F
SPUR 1W          N/A     77  53  43 S15       29.93F
WEINERT 2NNE     N/A     70  62  73 S15       29.99F
WHITE RVR 6NE    N/A     79  48  33 S15       29.94F
$$

TXZ052-054-060>062-072-078-127-140-154-169-210000-
TEXAS TECH WEST TEXAS MESONET/PERMIAN BASIN/
CONCHO VALLEY/BIG COUNTRY/EDWARDS PLATEAU

CITY           SKY/WX    TMP DP  RH WIND       PRES   REMARKS
COYANOSA 2N      N/A     84  47  27 N5        29.96F
JUNCTION 1SSW    N/A     68  64  84 S8        30.04S
MERTZON 3NNE     N/A     73  61  68 S9        30.02S
SAN ANGELO 7NW   N/A     71  62  71 SE10      30.00F
STRLNG CT 4WSW   N/A     76  57  52 S9        30.00F
ST LAWRNCE 5SW   N/A     75  55  49 S7        30.00F
SWEETWATR 11SW   N/A     72  61  67 S13       30.01F
WALL 1E          N/A     70  62  74 SE10      30.01F
$$

TXZ055-058-074-075-080-082-210000-
TEXAS TECH WEST TEXAS MESONET/FAR WEST/SOUTHWEST MOUNTAINS/TRANS PECOS

CITY           SKY/WX    TMP DP  RH WIND       PRES   REMARKS
PRSMN GAP BBNP   N/A     88  38  17 W7        29.95F
$$